[[{"header":{"parameterUnit":"m.s-1","parameterCategory":1,"la1":30.2991,"la2":30.254,"lo1":-89.0895,"lo2":-89.0444,"dy":0.0017,"dx":0.0017,"nx":28,"ny":28,"refTime":"2024-06-29T21:00:00:Z","depth":0,"parameterNumber":2,"parameterNumberName":"U-component_of_WINDS"},"data":[0,0,0,0,0,0,0,0,0,0,0,0,0,0,0,0,0,0,0,0,0,0,0,0,0,0,0,0,0,0,0,0,0,0,0,0,0,0,0,0,0,0,0,0,0,0,0,0,0,0,0,0,0,0,0,0,0,0,2.2251,2.2251,0,2.2274,2.2274,2.2274,2.2233,2.2232,2.2231,2.2229,2.2256,2.2258,2.2259,0,0,0,0,0,0,0,0,0,0,0,0,0,2.2177,2.2179,2.2251,2.2251,2.2251,2.2273,2.2274,2.2274,2.2234,2.2232,2.223,2.2229,2.2255,2.2257,2.226,0,0,0,0,0,0,0,0,0,0,0,0,0,2.2206,2.2179,2.2251,2.2234,2.2232,2.2273,2.2274,2.2274,2.2234,2.2232,2.223,2.2228,2.2254,2.2257,2.226,2.232,0,0,2.2269,2.227,0,0,0,0,0,0,0,0,2.2204,2.2208,2.2236,2.2235,2.2234,2.2248,2.2258,2.229,2.2234,2.2233,2.2229,2.2227,2.2255,2.2258,2.2267,2.2321,2.2322,2.2269,2.2271,2.2272,2.2273,0,0,0,0,0,0,0,2.2202,2.2207,2.226,2.2236,2.2235,2.2227,2.2228,2.2263,2.2256,2.2233,2.223,2.2234,2.2254,2.2264,2.2267,2.2322,2.2269,2.2272,2.2274,2.2275,2.243,2.2432,0,0,0,0,0,0,2.2202,2.2206,2.2259,2.2261,2.2213,2.223,2.2232,2.2246,2.2255,2.2255,2.2235,2.2232,2.226,2.2264,2.2268,2.234,2.2272,2.2275,2.2277,2.2428,2.2431,2.2433,0,0,0,0,0,0,2.22,2.2207,2.2258,2.2232,2.2238,2.2233,2.2249,2.2247,2.2257,2.2257,2.2255,2.2246,2.2258,2.2264,2.2308,2.234,2.2277,2.2279,2.2425,2.2429,2.2432,2.2484,0,0,0,0,0,0,2.2198,2.2207,2.2228,2.2233,2.224,2.2296,2.2251,2.2249,2.2262,2.2257,2.2267,2.2266,2.2257,2.2303,2.2311,2.2343,2.2282,2.2422,2.2427,2.2431,2.2479,2.2488,2.2496,0,0,0,0,0,2.2196,2.2241,2.2229,2.2236,2.2266,2.2298,2.2302,2.2289,2.2265,2.2287,2.2287,2.2266,2.2336,2.2308,2.2316,2.235,2.242,2.2425,2.243,2.2475,2.2486,2.2496,0,0,0,0,0,0,2.224,2.2242,2.2228,2.2276,2.2287,2.2291,2.2318,2.2302,2.2321,2.2316,2.2301,2.2303,2.2351,2.2355,2.2324,2.241,2.2374,2.2381,2.2405,2.2416,2.2425,2.2423,2.2284,0,0,0,0,0,2.2255,2.228,2.228,2.2323,2.2329,2.2323,2.2337,2.2326,2.2338,2.2342,2.2345,2.2358,2.2384,2.24,2.2423,2.248,2.2483,2.2507,2.2516,2.2523,2.253,2.2563,2.2574,2.245,2.245,2.245,0,0,2.2287,2.2291,2.2307,2.2332,2.2339,2.2367,2.2327,2.2357,2.2378,2.2347,2.2389,2.2392,2.2406,2.2457,2.248,2.2462,2.2565,2.253,2.2536,2.2538,2.2569,2.2581,2.2592,2.2454,2.2453,2.2453,0,0,2.2359,2.2364,2.2401,2.241,2.2421,2.2417,2.2427,2.2434,2.2435,2.2476,2.2454,2.248,2.2523,2.2534,2.2546,2.2626,2.2608,2.2634,2.268,2.2713,2.2722,2.2731,2.2761,2.2772,2.2641,2.2641,2.2641,0,2.2397,2.2436,2.2422,2.2455,2.2467,2.2441,2.248,2.2489,2.2508,2.2519,2.2498,2.2553,2.256,2.2615,2.2635,2.2645,2.2657,2.2632,2.2722,2.273,2.2738,2.2767,2.2778,2.2644,2.2643,2.2643,2.2643,0,2.2484,2.2511,2.254,2.2559,2.2575,2.2611,2.2604,2.2623,2.2612,2.2612,2.2656,2.2664,2.269,2.2702,2.2692,2.2757,2.2745,2.2724,2.2687,2.2753,2.278,2.2791,2.2648,2.2647,2.2646,2.2645,0,0,2.2581,2.2594,2.2605,2.2615,2.2628,2.265,2.2686,2.271,2.2727,2.2742,2.2773,2.2812,2.2793,2.2806,2.2797,2.2826,2.2892,2.2801,2.2801,2.2818,2.2966,2.2982,2.2995,2.288,2.2882,2.2884,2.2965,0,2.2654,2.2714,2.2704,2.2763,2.279,2.2767,2.2799,2.2812,2.2813,2.2837,2.2839,2.2867,2.2839,2.2847,2.2875,2.2878,2.2921,2.2872,2.2911,2.2912,2.2907,2.3008,2.3025,2.3101,2.2975,2.2977,2.2978,0,2.2745,2.2764,2.2826,2.2837,2.2848,2.2876,2.29,2.2923,2.2938,2.2937,2.2953,2.2941,2.2979,2.2943,2.2997,2.2964,2.298,2.2984,2.2987,2.299,2.2949,2.3015,2.3125,2.3136,2.2994,2.2993,2.2992,0,2.2812,2.2853,2.2896,2.2905,2.2918,2.2939,2.2946,2.2959,2.2976,2.2997,2.3007,2.3033,2.3047,2.3068,2.3064,2.3038,2.312,2.3083,2.3122,2.3122,2.314,2.3138,2.3254,2.315,2.315,2.3149,2.3149,0,2.2894,2.2933,2.2926,2.2953,2.2997,2.2987,2.3031,2.3036,2.3048,2.3077,2.3059,2.3087,2.3079,2.3107,2.3104,2.3151,2.3157,2.3159,2.3158,2.3161,2.316,2.317,2.3165,2.3152,2.3152,2.3151,2.3151,0,2.2975,2.2972,2.3018,2.3028,2.3031,2.3064,2.3073,2.3099,2.31,2.3136,2.3145,2.3146,2.3179,2.3177,2.3213,2.3212,2.3269,2.3262,2.3264,2.3262,2.3302,2.3299,2.3428,2.3445,2.3329,2.3331,2.3331,0,2.3028,2.3057,2.3071,2.3088,2.3097,2.3125,2.3142,2.3134,2.3153,2.3174,2.3199,2.3229,2.3253,2.3307,2.3313,2.3341,2.3335,2.3378,2.3339,2.3342,2.3337,2.3335,2.3339,2.3386,2.3387,2.3388,2.3389,0,2.3121,2.3119,2.3143,2.3168,2.3189,2.3208,2.3225,2.3241,2.3236,2.3258,2.3291,2.331,2.3348,2.338,2.3408,2.3417,2.3403,2.3402,2.3412,2.3415,2.3416,2.3417,2.3285,2.3398,2.3397,2.3397,2.3396,2.3396,2.319,2.3216,2.3231,2.3259,2.3272,2.3289,2.3315,2.332,2.3346,2.3376,2.3371,2.3408,2.3426,2.3462,2.3475,2.3505,2.349,2.3505,2.3509,2.3513,2.3518,2.3411,2.351,2.351,2.351,2.351,2.351,0,2.3284,2.3293,2.3319,2.3344,2.3368,2.3352,2.3372,2.3393,2.3425,2.3443,2.3467,2.3506,2.3538,2.3547,2.3578,2.3601,2.3596,2.361,2.3608,2.3611,2.3529,2.3517,2.3613,2.3613,2.3613,2.3613,2.3613,2.3613,2.3335,2.3379,2.3379,2.3431,2.3439,2.3475,2.3488,2.3505,2.3519,2.3563,2.3589,2.3595,2.361,2.3642,2.3671,2.3674,2.3686,2.3703,2.3703,2.3626,2.3616,2.3606,2.3595,2.3706,2.3706,2.3781,2.3782,2.3782]},{"header":{"parameterUnit":"m.s-1","parameterCategory":1,"la1":30.2991,"la2":30.254,"lo1":-89.0895,"lo2":-89.0444,"dy":0.0017,"dx":0.0017,"nx":28,"ny":28,"refTime":"2024-06-29T21:00:00:Z","depth":0,"parameterNumber":3,"parameterNumberName":"V-component_of_WINDS"},"data":[0,0,0,0,0,0,0,0,0,0,0,0,0,0,0,0,0,0,0,0,0,0,0,0,0,0,0,0,0,0,0,0,0,0,0,0,0,0,0,0,0,0,0,0,0,0,0,0,0,0,0,0,0,0,0,0,0,0,1.0112,1.0112,0,1.0177,1.0178,1.0178,1.0178,1.0177,1.0176,1.0175,1.0239,1.0241,1.0244,0,0,0,0,0,0,0,0,0,0,0,0,0,0.9981,0.9984,1.0112,1.0113,1.0113,1.0177,1.0178,1.0179,1.0178,1.0177,1.0176,1.0175,1.0238,1.0241,1.0244,0,0,0,0,0,0,0,0,0,0,0,0,0,1.0041,0.9984,1.0112,1.0121,1.0122,1.0177,1.0178,1.0179,1.0178,1.0177,1.0176,1.0174,1.0237,1.0241,1.0244,1.0293,0,0,1.0256,1.0257,0,0,0,0,0,0,0,0,1.0038,1.0046,1.0119,1.012,1.0122,1.0168,1.0155,1.0217,1.0178,1.0157,1.0175,1.0174,1.0216,1.0221,1.0236,1.0296,1.0299,1.0256,1.0258,1.026,1.0261,0,0,0,0,0,0,0,1.0034,1.0043,1.0137,1.012,1.0122,1.012,1.0127,1.0167,1.0193,1.0159,1.0159,1.0167,1.0217,1.0233,1.0238,1.03,1.0256,1.0259,1.0262,1.0263,1.0399,1.04,0,0,0,0,0,0,1.0028,1.004,1.0135,1.0139,1.0076,1.0123,1.0131,1.0154,1.0192,1.0197,1.0168,1.0166,1.0227,1.0234,1.024,1.0297,1.026,1.0264,1.0266,1.0397,1.0399,1.04,0,0,0,0,0,0,1.0025,1.0037,1.0133,1.009,1.0102,1.0127,1.0153,1.0156,1.0173,1.0199,1.0203,1.018,1.0226,1.0235,1.0279,1.0299,1.0265,1.0269,1.0396,1.0398,1.04,1.0413,0,0,0,0,0,0,1.0022,1.0036,1.0056,1.009,1.0104,1.0172,1.0154,1.0159,1.0179,1.0178,1.0212,1.0216,1.0226,1.0274,1.0283,1.0304,1.0272,1.0394,1.0397,1.0399,1.0411,1.0415,1.0419,0,0,0,0,0,1.0017,1.0057,1.0057,1.0069,1.013,1.0174,1.0181,1.0193,1.0181,1.02,1.0217,1.0215,1.0296,1.0278,1.0289,1.0311,1.0393,1.0396,1.0399,1.0409,1.0414,1.0419,0,0,0,0,0,0,1.0025,1.0062,1.0062,1.0115,1.0141,1.0174,1.0199,1.0199,1.0229,1.0226,1.0238,1.0246,1.029,1.0305,1.0285,1.0358,1.0342,1.0348,1.0347,1.0352,1.0356,1.0351,1.0275,0,0,0,0,0,1.0033,1.0066,1.0097,1.014,1.0153,1.0174,1.0193,1.02,1.0227,1.0238,1.0258,1.0283,1.0314,1.0334,1.0364,1.0413,1.0419,1.0433,1.0437,1.0441,1.0444,1.0468,1.0474,1.041,1.041,1.041,0,0,1.0049,1.0074,1.0094,1.0142,1.0163,1.0196,1.0183,1.0219,1.0242,1.0243,1.0286,1.0301,1.033,1.0376,1.0397,1.039,1.0463,1.0444,1.0447,1.0449,1.0472,1.0478,1.0483,1.0412,1.0412,1.0412,0,0,1.0096,1.0119,1.0156,1.0177,1.0209,1.0222,1.023,1.0262,1.0272,1.0316,1.0316,1.0343,1.0397,1.0416,1.0433,1.0484,1.0482,1.0493,1.0514,1.0537,1.0542,1.0546,1.0562,1.0567,1.0497,1.0497,1.0498,0,1.0112,1.0162,1.0175,1.021,1.023,1.0232,1.0268,1.0288,1.0327,1.034,1.0332,1.0397,1.0417,1.0466,1.0478,1.0492,1.0501,1.0489,1.054,1.0545,1.0549,1.0564,1.057,1.0498,1.0498,1.0498,1.0498,0,1.0179,1.0214,1.024,1.0278,1.03,1.0336,1.0352,1.0373,1.0377,1.039,1.0432,1.0455,1.0489,1.0501,1.0506,1.055,1.0544,1.0538,1.0522,1.0556,1.057,1.0576,1.05,1.05,1.0499,1.0499,0,0,1.0233,1.0276,1.0285,1.0301,1.0335,1.0361,1.0395,1.0428,1.0445,1.0472,1.0499,1.0543,1.0537,1.0556,1.0562,1.0583,1.0617,1.0574,1.0574,1.0579,1.0664,1.0667,1.0673,1.0616,1.0618,1.0619,1.0661,0,1.0281,1.0343,1.0354,1.0407,1.0437,1.0438,1.0468,1.049,1.0503,1.0529,1.0542,1.0572,1.0563,1.0574,1.0595,1.0609,1.0634,1.0606,1.0639,1.0641,1.0631,1.0681,1.0685,1.0724,1.0666,1.0667,1.0668,0,1.0346,1.0373,1.043,1.0457,1.047,1.0496,1.0525,1.0551,1.0576,1.0583,1.0603,1.0607,1.064,1.0623,1.0667,1.0648,1.0662,1.067,1.0672,1.0674,1.0655,1.0683,1.0737,1.0742,1.0677,1.0676,1.0676,0,1.0376,1.0427,1.0467,1.0481,1.0514,1.0532,1.0546,1.057,1.0588,1.0613,1.0625,1.0654,1.0669,1.069,1.07,1.0687,1.0742,1.0727,1.0747,1.0746,1.0757,1.0756,1.0812,1.077,1.077,1.077,1.0769,0,1.0427,1.0461,1.048,1.0504,1.0541,1.0552,1.0588,1.0602,1.0622,1.0647,1.065,1.0673,1.0686,1.071,1.0718,1.0752,1.0759,1.0764,1.0766,1.0763,1.0762,1.0771,1.0768,1.0771,1.0771,1.077,1.077,0,1.0467,1.0482,1.0524,1.0552,1.0559,1.0585,1.0607,1.063,1.0641,1.0673,1.0681,1.0698,1.0727,1.0739,1.0775,1.078,1.0817,1.0818,1.0809,1.0809,1.0827,1.0824,1.089,1.0898,1.0852,1.0852,1.0852,0,1.0498,1.0524,1.0553,1.057,1.0585,1.0613,1.0632,1.0643,1.0661,1.069,1.0708,1.0736,1.076,1.0805,1.082,1.0846,1.0846,1.0867,1.085,1.0845,1.0843,1.0841,1.0842,1.0869,1.087,1.087,1.0871,0,1.055,1.0556,1.0582,1.0611,1.0632,1.0655,1.0677,1.0691,1.0705,1.0725,1.0754,1.0773,1.0808,1.0835,1.0862,1.0875,1.0874,1.0876,1.0881,1.0878,1.0871,1.0873,1.0815,1.0874,1.0874,1.0873,1.0873,1.0873,1.0585,1.0607,1.063,1.0659,1.0676,1.0697,1.0718,1.0732,1.0757,1.0786,1.0791,1.0822,1.0843,1.0878,1.0892,1.0915,1.0909,1.0918,1.092,1.0921,1.0921,1.0869,1.092,1.092,1.092,1.092,1.0919,0,1.0635,1.065,1.0676,1.0707,1.0728,1.0727,1.0751,1.0768,1.0795,1.0816,1.0838,1.087,1.0896,1.0913,1.0938,1.0953,1.0953,1.0959,1.0957,1.0959,1.0926,1.0917,1.0958,1.0958,1.0958,1.0958,1.0958,1.0958,1.0664,1.07,1.0707,1.0751,1.0765,1.0795,1.0808,1.0826,1.0842,1.0877,1.0899,1.091,1.0928,1.0954,1.0977,1.0981,1.0989,1.0995,1.0998,1.0966,1.0962,1.0958,1.095,1.0997,1.0997,1.103,1.103,1.103]}]]